Flag for Slovakia Weather past 2 weeks in Piešťany, Slovakia

Now
37 °F

Fog.


Feels Like: 34 °F
Forecast: 31 / 48 °F
Wind: 5 mph from North

Location: Piestany

Current Time: Feb 28, 2015 at 2:08:11 AM

Latest Report: Feb 28, 2015 at 1:30 AM


Visibility: 3 mi

Pressure: 30.01 "Hg

Humidity: 93%

Dew point: 36 °F

Location of PiešťanyLocation

Historic Weather in Piešťany — Graph

°F

Piešťany temperature yesterday

Maximum temperature yesterday: 45 °F (at 1:30 PM)
Minimum temperature yesterday: 39 °F (at 12:00 AM)
Average temperature yesterday: 41 °F

Past Weeks' High & Low Weather Summary

 TemperatureHumidityPressure
High52 °F (Feb 15, 12:00 PM)100% (Feb 20, 4:00 AM)30.74 "Hg (Feb 20, 4:00 AM)
Low19 °F (Feb 20, 6:30 AM)34% (Feb 16, 4:00 PM)29.62 "Hg (Feb 21, 5:00 PM)
Average38 °F74%30.09 "Hg
* Reported Feb 13 1:00 AM — Feb 28 1:00 AM, Piešťany, Weather by CustomWeather, © 2015

Note: Actual official high and low records may vary slightly from our data, if they occured in-between our weather recording intervals... More about our weather records

Advertising

Piešťany weather history for previous 24 hours

 ConditionsComfort  
Time TempWeatherWind HumidityBarometerVisibility
1:00 AM
Sat, Feb 28
39 °FOvercast.3 mph87%30.01 "Hg4 mi
12:30 AM37 °FFog.5 mph93%30.01 "Hg3 mi
12:00 AM39 °FOvercast.1 mph87%30.01 "Hg4 mi
11:30 PM
Fri, Feb 27
39 °FOvercast.2 mph87%30.01 "Hg4 mi
11:00 PM39 °FFog.3 mph87%30.01 "Hg3 mi
10:30 PM39 °FOvercast.5 mph87%30.01 "Hg4 mi
10:00 PM39 °FOvercast.No wind87%30.01 "Hg5 mi
9:30 PM39 °FOvercast.3 mph87%30.01 "Hg4 mi
9:00 PM41 °FMostly cloudy.2 mph81%29.98 "HgN/A
8:30 PM41 °FMostly cloudy.1 mph81%29.98 "HgN/A
8:00 PM41 °FOvercast.1 mph81%29.98 "HgN/A
7:30 PM43 °FPassing clouds.1 mph76%29.98 "HgN/A
7:00 PM43 °FPassing clouds.3 mph76%29.98 "HgN/A
6:30 PM43 °FPassing clouds.3 mph71%29.98 "HgN/A
6:00 PM43 °FPassing clouds.3 mph76%29.95 "HgN/A
5:30 PM43 °FPassing clouds.3 mph76%29.95 "HgN/A
5:00 PM45 °FPartly sunny.6 mph71%29.95 "HgN/A
4:30 PM45 °FBroken clouds.6 mph71%29.95 "HgN/A
4:00 PM45 °FOvercast.6 mph71%29.95 "HgN/A
3:30 PM45 °FOvercast.7 mph71%29.95 "HgN/A
3:00 PM45 °FMore clouds than sun.8 mph71%29.92 "HgN/A
2:30 PM45 °FMore clouds than sun.7 mph71%29.92 "HgN/A
2:00 PM45 °FMore clouds than sun.9 mph71%29.95 "HgN/A
1:30 PM45 °FMore clouds than sun.10 mph71%29.95 "HgN/A
1:00 PM43 °FPartly sunny.9 mph81%29.95 "Hg5 mi
12:30 PM43 °FMostly cloudy.10 mph81%29.95 "Hg4 mi
12:00 PM41 °FFog.7 mph87%29.95 "Hg3 mi
11:30 AM41 °FFog.7 mph87%29.98 "Hg3 mi
11:00 AM41 °FFog.5 mph87%29.98 "Hg3 mi
10:30 AM41 °FFog.6 mph87%29.98 "Hg2 mi
10:00 AM41 °FFog.6 mph87%29.95 "Hg2 mi
9:30 AM39 °FFog.8 mph93%29.95 "Hg1 mi
9:00 AM39 °FFog.5 mph93%29.95 "Hg1 mi
8:30 AM39 °FFog.3 mph93%29.95 "Hg1 mi
8:00 AM39 °FFog.6 mph93%29.95 "Hg1 mi
7:30 AM39 °FFog.7 mph93%29.95 "Hg1 mi
7:00 AM39 °FFog.7 mph100%29.95 "Hg1 mi
6:30 AM41 °FFog.5 mph93%29.95 "Hg1 mi
6:00 AM39 °FFog.3 mph100%29.95 "Hg1 mi
5:30 AM39 °FFog.5 mph93%29.95 "Hg1 mi
4:30 AM39 °FFog.1 mph93%29.95 "Hg1 mi
4:00 AM39 °FFog.1 mph93%29.95 "Hg2 mi
3:30 AM39 °FFog.2 mph93%29.98 "Hg2 mi
3:00 AM39 °FFog.2 mph93%29.98 "Hg2 mi
2:30 AM39 °FFog.3 mph93%29.98 "Hg2 mi
2:00 AM39 °FFog.2 mph93%29.98 "Hg2 mi
Weather by CustomWeather, © 2015

See weather overviewHow to use our weather pages